{"data":{"norad_id":62167,"epoch":"2026-05-24T22:48:37.145952Z","epoch_age_seconds":75277,"freshness":"FRESH","line1":"1 62167U 24225E   26144.95042993  .00001110  00000+0  10080-3 0  9999","line2":"2 62167  70.0012 332.3576 0002763 263.4408  96.6436 14.98318634 81299","mean_motion":14.98318634,"eccentricity":0.0002763,"inclination_deg":70.0012,"raan_deg":332.3576,"arg_perigee_deg":263.4408,"mean_anomaly_deg":96.6436,"bstar":0.0001008,"rev_number":8129,"period_min":96.107728177663,"perigee_km":570.17069157669,"apogee_km":574.01138759136,"semimajor_km":6950.228039584,"source":"CELESTRAK","updated_at":"2026-05-25T13:38:19.600948Z"}}